Starlink 6053

operational
NORAD ID: 56466 Int'l Des: 2023-064 Owner: SPXS Country: US Constellation: starlink
LEOCIRCULAR

About Starlink 6053

Description loading...

Live Position

Loading 3D Globe...

Upcoming Passes

Altitude History

Altitude vs Time

uPlot chart will show altitude changes over time

Two-Line Element Set

1 56466U 23064U 25303.20272833 -.00000032 00000-0 50754-5 0 9994
2 56466 69.9985 113.3295 0002850 270.3457 89.7375 14.98329463135706
Epoch: Oct 30, 2025 • Age: 19 hours

Current Status

Altitude 575.7 km
Velocity 7.58 km/s
Sub-Earth Point 26.20°N, 78.75°E
Launch Date May 10, 2023
Age 2.4 years
Type internet

Technical Details

Classification Payload
Mass 305.00 kg
Dry Mass 290.00 kg
Total Mass 305.00 kg
Length 0.20 m
Diameter 2.80 m
Span 9.00 m
Shape Box + pan
Manufacturer SPXS
Bus Type Starlink
Phase Status In Orbit
Owner/State SPXS/US

Large Constellations

Loading constellations...